RH
28 21 17 18 24 28 26 21 18 17 19 20 19 19 19 20 21 21 20 20 19 20 21 21 21 20 21 22 22 22 21 21 22 23 24 26 28 30 32 33 34 35 36 37 37 37 38 39 38 38 39 37 36 33 31 33 26 15 15 15 12 11 10 10 10 11 11 12 16 19 21 25 32 44 61 75 86 81 60 44 33 23 18 17 16
45 33 22 17 20 27 28 25 21 18 18 18 18 19 19 20 21 21 20 19 19 20 20 20 20 20 21 21 21 21 21 21 21 21 24 27 28 30 31 30 31 32 32 33 34 34 35 34 35 37 38 36 35 32 32 32 22 14 16 14 11 11 10 11 10 10 12 13 16 18 17 18 22 32 52 67 77 81 71 55 40 24 16 17 17
61 52 38 23 17 22 28 27 24 21 18 17 18 19 19 20 20 20 20 20 19 19 20 20 20 20 21 21 21 20 20 20 21 22 26 30 32 33 33 33 33 33 33 34 35 34 33 32 34 37 36 35 34 32 33 31 20 14 15 12 10 11 10 11 10 9 12 13 14 17 18 19 18 25 46 62 67 72 71 61 48 28 16 17 21
68 71 60 40 22 19 27 30 26 24 21 18 18 19 19 20 20 19 20 20 19 19 19 20 20 20 21 21 20 19 20 20 20 23 29 33 35 34 32 32 31 31 31 31 31 31 29 30 34 36 35 34 32 32 33 29 18 14 15 11 10 11 10 10 10 10 11 11 12 16 20 25 26 27 43 60 62 63 66 62 51 34 20 19 24
67 80 83 68 40 22 24 32 32 27 24 21 18 19 19 19 20 19 19 19 19 19 19 19 20 21 21 20 19 19 19 19 20 24 31 35 35 32 30 30 30 28 26 26 27 27 26 31 36 35 33 34 32 32 33 27 17 14 14 11 9 11 11 10 10 9 10 10 11 14 23 37 42 37 43 59 60 58 61 59 52 39 26 21 24
58 76 93 93 68 36 23 29 32 29 26 24 20 19 20 19 19 19 19 19 19 19 19 19 20 20 20 19 18 19 19 19 20 24 32 37 34 31 31 32 31 26 22 23 24 24 26 33 36 32 31 33 31 32 33 25 16 15 14 10 10 11 11 10 10 9 10 10 10 11 21 42 56 51 44 51 57 58 59 59 54 47 36 29 27
48 61 82 99 91 61 35 26 27 27 26 26 23 20 19 20 20 19 19 19 19 20 19 19 20 20 19 18 18 18 18 19 20 24 32 38 36 34 35 35 33 26 20 21 22 22 26 32 33 30 30 33 31 33 35 24 15 16 13 10 10 11 11 10 9 10 10 9 9 10 19 36 52 57 50 45 47 49 52 56 56 52 48 44 39
44 51 67 91 101 86 59 40 30 26 26 27 26 23 20 19 20 19 19 19 19 19 19 19 19 18 18 18 18 18 18 19 22 25 32 39 39 38 37 34 32 27 21 20 20 21 24 29 31 27 28 32 31 34 35 23 15 16 12 10 11 11 12 11 9 10 10 10 9 9 21 37 42 46 48 47 47 48 49 49 50 52 53 53 53
44 52 62 81 99 97 79 60 45 33 27 27 28 26 23 21 19 19 20 20 19 19 18 18 18 17 17 18 17 18 19 20 24 29 35 40 41 39 35 33 31 27 22 20 19 19 21 26 27 25 28 32 31 35 36 22 16 16 11 10 11 10 12 11 10 11 9 11 9 8 36 70 73 60 52 53 64 74 71 63 56 53 51 50 54
41 57 66 73 88 97 91 78 65 48 33 28 29 29 27 24 21 20 19 19 19 19 19 18 17 17 17 17 17 18 19 20 24 33 41 43 41 38 36 34 31 27 23 20 19 19 19 23 24 23 28 31 31 38 36 22 16 15 12 11 10 11 12 11 11 11 9 12 8 14 58 100 103 91 80 74 81 92 94 90 81 74 70 60 49
37 53 67 70 78 95 101 95 86 71 49 34 28 29 30 28 25 22 20 20 20 19 19 18 18 17 17 17 18 18 19 20 22 33 45 46 41 40 40 38 34 30 25 20 19 19 18 20 21 22 27 30 33 39 36 24 17 14 12 11 9 11 12 12 13 11 11 13 6 24 75 103 98 99 99 91 94 101 103 102 100 100 96 79 58
36 46 64 75 78 88 101 104 101 94 77 55 37 29 29 31 31 27 23 21 20 19 20 19 18 19 18 18 18 18 19 20 20 29 43 48 45 43 44 44 40 36 29 22 19 19 18 18 19 22 27 30 33 40 37 25 16 14 13 11 10 12 11 13 15 10 13 13 6 34 87 102 94 96 92 85 94 105 105 102 104 107 100 90 87
35 43 61 80 84 83 92 101 105 104 97 79 55 38 31 30 31 31 29 26 23 21 21 20 19 19 19 18 19 19 19 21 20 24 34 44 48 47 46 47 46 42 35 25 20 18 18 18 18 22 28 31 34 41 38 26 16 15 13 10 10 11 10 15 16 12 15 11 9 49 97 103 97 100 94 90 98 104 105 103 105 109 106 105 108
30 41 57 76 85 84 87 96 103 106 103 90 67 47 38 34 30 29 30 30 29 26 24 23 21 21 21 20 20 20 20 22 22 22 26 34 45 50 50 50 49 47 40 29 21 19 18 17 18 22 28 31 35 40 39 27 17 14 12 11 12 10 11 15 14 13 16 11 22 69 103 100 100 104 97 94 95 97 103 105 105 108 107 104 99
25 35 49 65 78 82 85 93 101 105 107 100 77 49 36 33 30 28 27 29 30 30 29 29 27 25 25 23 23 24 24 25 25 25 24 27 35 44 49 51 50 49 44 33 23 19 18 17 18 23 29 33 36 42 40 28 17 14 13 11 10 9 11 13 13 17 17 16 44 89 104 99 102 102 96 92 88 90 99 102 104 102 94 92 96
24 34 43 54 65 72 77 89 100 104 107 106 89 60 41 35 32 28 25 24 26 28 30 31 31 31 31 31 30 28 28 28 29 30 30 30 32 37 43 48 50 48 46 37 25 19 19 17 18 24 30 33 37 43 40 28 18 15 12 11 12 11 10 11 14 19 19 30 67 100 103 101 102 100 100 93 82 90 100 97 96 98 94 94 99
24 35 43 48 55 60 65 79 96 103 104 104 98 83 70 62 55 45 35 27 25 26 27 29 31 33 36 37 37 35 34 34 35 38 40 39 37 38 41 45 48 47 46 39 27 20 19 17 19 24 30 34 38 44 41 29 19 15 12 12 11 9 10 13 14 19 31 58 90 103 100 102 103 103 101 86 79 100 109 89 82 94 97 87 76
22 33 43 48 52 53 55 67 87 100 99 95 92 88 86 85 82 73 59 43 34 31 29 29 31 33 36 37 38 38 39 41 44 46 47 46 43 42 43 44 45 45 45 39 27 21 20 18 20 25 30 33 38 44 42 30 20 16 13 12 12 11 12 12 15 31 59 87 103 101 95 98 101 102 94 75 71 86 81 59 54 65 65 51 38
18 24 35 44 50 53 52 56 73 89 93 86 79 77 84 93 96 89 77 61 50 44 41 39 37 36 35 35 35 37 39 44 48 49 47 46 44 40 37 38 39 41 42 37 27 21 20 20 23 29 34 35 40 46 43 31 22 17 13 12 12 10 8 15 36 64 85 97 102 99 96 98 97 94 83 65 56 55 46 38 37 36 32 26 20
14 16 23 31 38 46 51 51 57 68 76 76 69 64 74 94 102 95 83 70 59 51 46 42 39 36 35 34 33 34 35 39 46 49 47 44 40 34 31 31 33 36 38 33 25 22 21 22 27 34 36 37 42 47 42 32 22 16 15 14 10 15 34 56 78 94 97 100 104 100 97 98 92 80 66 51 41 40 36 31 26 20 17 18 15
14 14 16 20 24 31 40 47 51 54 57 62 61 55 63 87 103 102 94 86 75 60 45 36 31 28 27 27 27 27 28 31 37 44 45 41 35 30 28 29 30 34 34 28 24 23 22 25 31 36 38 40 45 48 42 33 23 17 17 13 8 32 78 98 97 101 102 100 102 100 97 93 80 61 48 36 30 31 29 22 19 18 16 15 15
14 15 15 16 17 21 28 39 48 51 50 53 57 54 53 66 85 98 102 100 91 70 44 27 21 20 19 19 20 20 22 24 28 34 36 34 31 28 28 31 31 31 29 26 24 24 24 30 36 38 40 42 45 48 42 33 26 19 18 14 7 28 78 102 95 97 104 100 99 101 90 73 55 41 34 30 26 26 24 21 20 20 19 19 19
16 16 16 16 18 19 24 37 53 60 57 54 57 58 54 54 66 86 100 102 95 78 52 28 18 16 15 15 16 17 20 22 24 27 28 28 29 29 29 30 29 27 27 25 25 26 30 36 40 39 42 46 47 49 43 34 28 20 15 17 10 14 60 102 98 88 97 104 101 90 67 46 37 33 29 27 28 27 26 25 23 21 20 21 20
16 17 18 18 19 22 24 37 57 70 68 62 60 61 59 57 64 82 99 106 104 93 70 45 29 20 15 15 16 16 20 22 24 26 27 27 29 29 28 28 26 26 27 26 27 33 37 40 41 41 44 47 46 46 41 31 27 22 15 17 12 7 43 95 107 95 97 94 75 56 42 33 32 31 29 28 28 27 27 26 25 24 22 20 20
16 16 19 18 19 22 24 29 45 61 64 61 60 60 59 59 60 69 84 96 101 96 79 56 40 29 19 16 16 15 17 20 23 25 25 25 26 26 26 26 25 24 28 32 36 41 42 41 43 44 46 48 45 43 39 31 25 21 15 15 16 8 18 48 68 72 69 53 35 30 32 29 28 28 28 29 29 28 28 26 25 24 22 21 21
21 17 19 19 17 20 23 25 32 42 47 50 52 54 57 59 59 59 63 70 77 83 79 60 41 29 20 15 14 15 16 18 20 22 22 22 24 25 24 25 27 30 37 42 43 43 42 42 44 46 45 45 42 39 37 31 25 21 17 14 15 14 12 15 21 27 27 23 22 25 25 24 26 26 26 27 28 27 27 25 25 25 23 22 22
26 25 28 29 24 21 21 22 24 26 31 36 40 45 50 53 55 56 55 55 57 68 76 65 43 30 25 20 17 17 18 19 20 22 24 25 26 28 30 33 38 42 47 48 45 43 44 45 47 48 46 45 44 41 37 31 23 20 18 16 14 15 15 14 14 14 16 17 19 20 20 21 23 23 24 26 27 27 27 26 25 26 25 25 25
31 32 36 40 39 32 26 26 25 22 22 25 29 35 41 44 48 51 51 53 53 59 73 76 64 53 48 42 38 37 35 36 36 35 37 39 39 41 43 45 49 51 50 49 46 44 46 47 47 48 47 44 43 40 35 29 24 20 18 17 17 16 16 17 17 17 17 18 18 19 20 20 20 22 24 26 27 28 29 28 26 26 26 26 27
30 31 31 34 37 35 30 29 29 26 23 24 24 27 33 37 41 45 46 49 51 53 63 76 82 82 79 71 65 61 57 57 56 54 54 54 53 54 54 54 54 54 51 49 49 48 49 50 49 49 48 46 44 40 33 27 24 21 18 17 17 18 18 19 20 20 20 20 20 20 20 20 22 24 24 26 28 29 30 29 28 28 27 27 28
30 30 29 28 29 29 28 27 27 25 23 23 23 25 29 32 36 40 43 46 49 50 54 62 73 86 93 89 81 77 72 67 65 63 63 62 62 62 61 59 58 55 52 51 50 49 49 49 48 48 46 42 37 34 31 28 23 21 20 18 18 20 20 20 21 21 22 22 21 21 22 22 23 25 25 27 28 29 30 31 29 29 28 28 28
33 32 32 31 29 29 29 27 27 26 25 25 24 25 27 30 33 37 40 42 45 48 51 56 65 80 92 91 85 81 76 70 65 63 62 62 62 61 58 56 54 52 50 49 49 50 51 51 49 47 45 43 39 35 31 29 25 22 20 18 18 20 21 21 22 23 23 24 23 23 23 23 24 26 26 26 26 27 29 30 30 30 29 28 28
37 35 34 34 32 32 31 29 28 27 27 27 28 27 28 28 29 31 34 37 40 44 49 54 61 71 81 83 79 74 67 60 56 55 53 53 53 52 51 50 49 48 49 50 49 48 47 44 43 43 41 39 40 37 34 32 29 25 21 20 20 20 19 21 23 24 25 25 25 25 26 26 26 26 25 25 24 25 26 28 29 29 28 27 29
39 38 37 37 36 35 34 32 31 29 28 28 29 29 29 30 29 30 30 31 34 36 38 43 47 51 56 60 58 54 50 46 45 46 46 46 45 44 45 47 48 50 51 49 46 49 53 55 61 70 73 68 59 49 40 36 35 32 26 22 21 20 21 23 24 25 26 26 26 27 27 27 27 26 25 25 24 24 26 27 28 29 28 28 29
39 38 38 38 38 38 37 35 34 33 32 30 30 29 29 29 29 30 32 32 33 34 36 38 40 40 41 42 42 43 44 44 44 43 44 45 47 52 55 54 52 53 52 45 39 48 68 83 88 90 92 91 89 84 71 52 41 37 35 31 27 23 23 24 25 26 27 27 28 29 27 27 27 26 25 25 25 26 28 29 29 30 29 29 29
39 39 38 38 39 39 38 37 36 35 35 34 33 32 30 29 29 29 30 30 31 33 36 38 38 39 40 42 43 43 42 42 43 44 46 49 52 53 49 42 39 39 38 33 26 27 47 73 88 92 95 96 100 106 100 77 54 44 40 36 30 27 28 29 30 32 34 32 31 30 27 26 27 25 24 26 27 28 29 30 31 33 31 30 30
42 41 39 38 38 39 40 39 38 37 36 36 37 36 37 37 36 34 33 32 31 31 32 32 31 31 32 32 33 32 32 33 34 33 32 31 30 29 30 37 49 52 43 36 32 25 27 41 56 68 78 82 81 82 83 74 57 44 40 42 43 46 50 49 43 42 40 36 33 30 27 26 26 25 25 27 28 29 31 31 33 34 31 30 30
44 43 41 40 39 40 41 41 41 40 38 38 38 39 39 40 41 40 39 38 36 35 33 31 30 29 28 28 27 25 23 22 21 23 29 34 39 52 66 79 93 95 81 71 72 71 67 66 66 62 62 62 59 57 61 64 56 48 55 74 85 84 79 67 53 43 37 31 29 27 25 25 26 24 26 28 29 31 34 34 34 35 32 31 31
43 43 42 41 40 40 41 42 44 44 43 41 40 40 39 38 39 40 40 40 41 41 38 35 32 30 28 28 28 27 27 31 40 58 78 88 89 93 98 99 104 108 103 98 100 100 96 96 97 95 92 90 86 81 81 85 79 68 69 85 96 94 85 70 52 39 31 26 26 27 26 26 26 25 26 29 30 32 35 35 35 36 35 33 33
44 44 42 41 40 39 40 43 46 47 48 47 45 44 42 40 38 38 39 39 36 33 30 28 29 32 34 35 33 30 31 39 50 64 82 96 102 103 103 101 103 106 104 101 102 101 97 96 98 99 100 101 101 100 100 102 101 92 86 86 86 79 67 52 39 32 28 26 26 27 26 25 26 26 28 30 31 34 36 36 36 37 36 34 34
46 45 43 41 40 39 39 45 50 50 49 49 48 47 46 44 42 40 40 37 33 35 47 58 63 67 72 75 71 63 54 49 45 42 44 53 66 78 89 96 101 103 103 103 102 99 96 97 99 100 101 100 97 92 88 84 80 75 71 68 62 52 41 33 29 28 28 27 27 27 27 27 28 30 31 32 33 35 35 36 37 37 35 34 34
48 47 44 41 40 39 40 46 53 53 49 45 45 46 47 47 46 43 42 40 39 48 70 89 96 98 99 98 96 94 89 81 73 65 57 48 43 45 52 61 68 76 83 91 97 100 100 99 95 90 87 82 74 65 57 52 47 44 42 39 36 33 30 29 29 28 28 29 30 30 30 31 31 32 34 35 36 37 37 37 38 36 34 34 33
53 50 47 45 45 44 43 45 50 53 51 46 43 44 47 49 49 47 44 42 40 41 50 63 75 85 94 97 98 101 103 102 100 98 94 88 80 71 62 55 52 52 54 58 67 77 83 83 77 67 58 54 49 44 40 38 36 34 33 32 31 31 30 30 30 31 31 32 33 32 33 34 34 35 37 37 38 39 38 38 37 35 34 32 30
63 58 53 51 53 54 53 50 49 51 53 51 47 46 47 48 50 49 46 45 43 42 41 43 46 54 65 74 79 84 88 92 94 92 90 89 86 79 69 59 51 48 47 46 47 50 52 52 51 48 44 43 42 41 40 39 37 36 35 34 34 34 34 34 34 34 34 34 34 34 35 36 37 38 38 38 38 38 37 35 35 33 31 29 27
78 73 66 62 63 65 66 63 58 54 56 57 54 51 50 49 49 49 48 46 44 43 42 42 41 41 44 47 49 52 57 60 61 59 57 57 56 53 51 49 48 47 47 47 47 48 48 48 48 49 49 49 48 46 45 44 42 40 39 38 37 37 36 36 35 35 35 36 37 38 39 40 40 39 38 38 37 36 34 32 31 28 26 25 24
94 91 85 79 76 76 75 74 70 65 64 64 62 58 56 53 51 50 49 48 47 45 43 42 41 41 42 42 42 42 45 45 45 45 46 48 49 49 50 51 52 52 52 52 51 51 51 51 50 50 50 49 48 47 46 44 43 41 40 39 38 38 38 37 38 39 40 41 42 42 41 40 39 38 38 37 35 33 31 28 26 23 22 23 23
106 107 102 95 92 90 86 83 81 76 72 69 67 63 60 57 55 54 52 50 49 49 47 47 45 43 42 43 43 43 43 43 44 45 47 47 48 50 51 51 52 53 52 51 51 51 51 50 50 49 48 48 47 46 45 44 43 43 42 41 40 40 40 40 41 42 43 43 42 41 40 39 38 38 36 34 31 29 26 24 23 22 22 23 23
108 110 107 103 103 103 98 92 90 87 82 75 70 66 63 60 58 57 56 54 53 52 50 50 50 50 49 49 49 48 47 46 45 45 45 45 46 46 46 46 47 47 47 46 46 46 46 46 46 45 45 45 45 44 44 44 44 44 44 43 43 43 43 43 43 43 42 42 41 40 40 39 37 35 32 30 27 25 24 23 24 23 23 22 21
102 105 106 106 108 109 104 96 93 93 91 87 80 72 66 63 61 60 59 58 57 56 55 54 54 53 53 54 54 54 53 52 49 47 45 44 44 43 43 43 43 42 42 42 42 42 42 42 42 42 43 43 43 44 44 45 46 47 47 47 46 45 44 43 42 42 42 42 41 39 37 34 31 29 28 27 26 26 26 25 24 23 22 21 20
79 85 93 100 107 112 109 99 92 94 100 104 102 92 80 72 68 66 64 62 61 60 60 61 62 62 61 60 59 59 58 57 54 52 49 47 45 44 44 44 44 44 44 44 45 45 45 45 45 44 44 44 45 46 47 49 50 50 49 48 47 46 45 44 43 43 41 39 36 33 30 29 28 27 28 28 28 28 27 25 24 23 21 21 21
65 72 86 94 101 111 113 108 103 103 103 103 102 99 93 87 82 77 73 72 70 69 70 71 72 72 71 68 66 65 63 62 60 58 55 54 52 51 51 52 53 55 58 59 60 60 59 57 56 54 53 53 53 53 53 54 54 53 52 50 48 47 45 43 40 37 34 32 30 29 29 29 29 28 28 28 27 26 26 25 24 23 23 22 22
73 82 95 99 98 102 106 107 107 105 94 79 72 76 86 94 96 93 90 87 84 83 84 86 86 85 83 79 75 73 71 69 68 66 64 63 62 61 62 63 64 66 67 68 67 65 64 62 62 61 60 59 58 57 55 54 53 51 49 45 42 39 37 34 31 30 30 30 30 31 31 30 29 27 26 25 25 25 25 26 25 24 24 24 23
Wind_Speed
32 32 31 30 29 31 31 30 29 27 28 28 28 27 26 25 24 24 24 22 21 20 19 18 17 17 16 15 13 12 12 12 11 11 12 13 14 15 16 17 18 19 20 20 21 22 24 26 27 28 30 31 33 35 36 37 39 36 32 30 30 30 31 33 34 34 34 34 35 36 37 37 36 34 32 32 33 33 32 30 27 22 16 10 6
34 33 32 31 31 32 32 31 30 28 28 28 28 28 27 26 27 26 25 24 22 21 21 20 19 18 17 16 14 13 13 13 12 13 14 14 16 17 18 19 20 20 21 21 21 22 24 25 26 27 29 31 33 34 35 37 37 33 29 28 28 28 30 32 32 33 33 34 35 36 36 36 35 32 31 30 31 32 33 32 30 25 19 11 8
35 34 33 32 31 31 32 32 31 30 29 28 29 29 28 28 28 27 26 25 24 23 22 21 20 19 18 17 15 15 14 14 14 14 15 16 17 17 18 19 19 19 20 20 20 22 23 25 26 27 28 30 32 33 35 37 35 31 28 27 26 27 28 29 31 31 32 33 34 36 36 36 35 32 30 30 31 31 32 32 31 27 20 13 10
36 36 35 33 31 31 32 33 32 32 30 29 30 30 30 30 29 28 28 27 26 24 23 23 22 21 19 18 17 16 16 16 16 16 16 16 17 17 18 18 18 19 19 20 21 22 23 24 25 27 28 30 32 33 34 36 34 29 26 25 25 26 27 28 29 30 31 32 34 36 37 37 35 32 29 30 31 32 32 31 31 27 21 15 11
36 37 36 34 33 33 33 34 35 34 32 31 31 31 31 31 31 30 30 28 27 26 25 24 23 22 21 20 19 18 18 17 17 17 17 17 17 17 17 18 19 20 20 21 22 23 24 24 25 27 29 30 32 33 34 35 32 27 24 23 23 24 25 26 27 28 29 31 32 35 38 37 34 31 29 29 31 33 33 32 30 26 21 17 13
36 38 37 35 35 35 36 37 38 37 34 33 33 33 33 33 32 31 31 29 29 28 27 26 25 24 23 22 21 20 19 19 19 19 19 18 18 18 18 19 20 21 22 22 23 23 24 24 25 27 29 30 31 33 34 34 30 26 23 22 22 23 24 25 26 27 28 30 31 34 36 37 35 31 28 27 29 31 32 32 30 26 22 18 15
37 38 38 38 37 37 38 39 39 38 36 35 34 34 35 34 33 32 32 31 31 30 29 27 27 26 25 24 23 22 21 21 21 20 20 19 19 19 20 21 22 22 23 23 24 24 25 25 26 27 28 30 31 32 34 33 28 24 23 22 22 22 23 24 25 26 27 29 30 32 34 36 35 33 30 28 27 28 29 29 29 27 23 19 17
38 38 39 40 40 40 40 40 39 38 36 35 36 36 36 36 34 34 34 34 33 32 30 30 29 28 27 26 25 24 23 23 22 21 21 20 20 20 21 21 22 23 24 24 25 25 25 26 26 27 28 30 31 32 32 31 26 22 21 20 21 21 22 23 24 25 26 27 29 30 31 33 33 33 32 30 28 28 28 27 27 26 23 21 20
39 39 39 41 41 41 40 40 39 39 38 37 37 38 38 37 36 36 36 36 35 33 32 32 31 30 29 28 27 26 25 24 23 22 21 21 21 21 21 22 23 24 24 25 26 26 26 26 27 28 29 30 31 31 31 29 24 20 18 18 18 18 19 22 23 23 23 25 26 26 28 30 31 30 30 30 29 29 28 28 27 26 25 22 20
41 40 40 41 41 40 40 40 40 40 39 39 39 39 39 39 38 38 38 37 36 35 35 35 34 32 31 30 30 29 28 26 25 23 22 22 22 22 22 22 23 24 25 26 26 27 27 27 28 28 29 30 31 31 31 28 23 19 17 16 15 16 17 20 21 22 22 22 22 22 25 29 29 29 29 28 28 28 29 29 29 30 30 27 22
42 42 41 40 40 39 40 40 40 40 40 40 40 40 40 40 40 39 39 38 38 38 38 38 36 34 33 33 32 31 30 28 26 25 24 24 24 23 23 23 24 25 26 27 27 27 28 28 28 29 29 30 31 31 31 28 23 20 17 15 15 15 16 18 20 21 21 20 19 20 24 28 28 29 31 31 31 30 29 30 31 32 33 30 25
44 43 41 40 39 40 40 40 40 41 41 42 42 42 41 41 41 41 41 40 40 40 40 40 38 37 36 36 35 34 33 31 29 28 27 27 26 25 25 25 25 27 27 28 28 28 28 28 28 29 29 30 31 31 31 29 24 21 18 16 15 15 16 18 20 21 21 20 17 18 23 27 28 30 33 33 33 33 31 31 33 32 30 28 27
45 43 42 41 40 40 40 41 41 42 42 42 42 42 42 43 43 43 42 41 41 42 42 41 40 40 39 39 38 36 35 34 33 31 30 30 29 29 28 27 28 28 29 29 29 29 29 28 28 29 29 30 30 31 31 29 25 22 19 17 16 16 16 17 19 20 21 20 17 19 23 26 29 33 33 31 33 33 30 31 33 30 29 33 37
47 45 43 42 41 40 39 40 42 43 43 42 42 42 43 44 44 44 43 43 43 44 43 42 42 42 42 41 40 39 38 37 36 34 33 33 33 32 31 30 30 31 31 31 30 30 30 29 28 29 30 30 30 31 30 29 25 22 20 19 18 17 16 16 18 20 21 20 20 21 24 26 31 35 33 31 33 29 26 31 35 31 33 42 48
48 46 45 44 43 41 40 40 41 42 43 43 43 43 43 44 44 44 44 44 45 45 44 44 43 43 43 43 42 42 41 39 38 37 35 35 35 35 34 33 33 33 33 32 32 31 31 30 29 29 30 30 30 31 31 29 26 23 22 21 20 20 17 16 18 21 22 21 21 24 27 30 34 35 33 34 32 26 28 38 39 33 38 46 51
48 48 47 47 45 43 42 41 41 41 42 43 43 43 43 43 43 43 44 45 46 46 45 45 45 44 44 44 44 44 43 41 39 38 37 37 37 36 36 35 35 35 35 34 33 33 32 31 30 30 30 30 30 31 31 29 27 25 24 23 23 23 19 17 18 21 22 23 24 28 32 36 37 35 33 32 28 25 34 44 38 31 38 48 50
50 50 50 49 47 45 43 42 42 41 42 42 43 43 43 43 43 43 44 45 45 46 46 46 45 45 45 45 45 45 44 42 41 39 38 38 38 38 37 37 37 36 36 35 35 34 34 32 31 31 31 30 31 31 31 30 28 27 26 26 26 25 22 20 20 21 23 25 30 33 36 37 36 33 29 25 21 25 37 43 36 32 40 47 48
51 51 51 50 49 48 45 44 43 43 42 42 42 42 42 42 43 44 45 46 46 46 46 46 46 46 46 46 46 46 44 43 42 41 40 39 39 39 39 39 39 38 37 37 37 36 35 34 32 32 31 31 31 31 32 31 29 29 28 27 29 29 26 23 23 24 27 32 36 37 36 37 35 31 26 21 18 25 35 37 32 32 39 43 43
52 52 52 52 51 50 48 47 46 45 44 43 42 40 39 39 41 43 45 46 46 46 46 47 47 47 47 47 47 46 45 44 44 43 42 41 41 42 42 42 42 40 37 38 38 38 37 35 34 33 32 31 32 32 32 31 31 30 29 29 31 31 28 27 29 32 35 37 38 37 36 36 33 28 25 24 22 24 30 33 31 33 37 40 41
52 52 52 53 53 52 51 50 48 47 46 45 43 41 39 38 38 40 42 44 45 45 46 47 47 47 48 47 47 46 46 45 45 46 45 43 43 43 44 45 44 41 38 39 40 39 38 35 34 34 33 33 33 33 33 32 31 31 30 30 32 33 31 32 36 39 41 40 38 37 36 36 34 29 29 31 31 30 32 34 36 38 40 43 46
51 52 52 53 53 53 52 51 50 49 48 46 45 43 40 39 38 39 39 41 42 43 45 46 46 46 46 46 46 45 45 45 45 46 46 45 44 44 45 46 44 41 40 40 41 40 38 36 34 34 34 35 34 34 34 32 32 33 32 30 31 32 34 38 41 43 45 43 40 38 37 37 37 35 35 36 38 39 39 40 43 45 47 49 51
49 51 52 52 52 52 51 51 51 50 49 47 46 45 43 42 41 40 40 40 41 42 43 44 44 44 44 44 44 43 43 44 44 44 45 45 45 44 45 45 44 42 41 42 42 40 38 36 35 35 36 36 36 35 35 34 34 34 33 29 26 26 32 40 43 44 43 41 40 41 39 37 37 38 40 41 42 43 43 43 45 47 49 51 53
48 49 50 50 50 50 50 50 50 50 49 48 47 46 44 43 43 42 41 41 41 41 42 42 43 43 43 43 42 42 42 42 42 42 43 44 44 44 45 45 44 42 42 42 42 40 38 37 37 37 38 38 38 37 36 36 35 34 34 31 23 20 28 39 43 43 42 41 41 41 40 39 39 40 41 42 43 43 44 45 46 46 48 49 51
48 49 50 50 50 50 51 51 51 51 51 50 49 48 46 45 45 45 44 43 42 42 42 42 43 43 43 42 42 42 41 41 41 42 42 43 44 44 44 44 43 42 43 43 42 40 39 39 39 40 40 40 39 39 38 37 36 35 34 33 26 20 24 34 42 47 48 46 44 42 40 40 40 40 40 42 43 44 45 46 48 49 49 49 51
49 49 50 51 51 52 52 53 54 54 54 53 53 51 50 48 48 48 48 47 46 45 44 43 44 44 43 43 42 41 41 41 42 42 42 42 43 44 44 43 42 41 42 42 42 41 40 41 41 42 43 42 41 41 40 39 38 37 36 35 32 27 26 32 42 49 49 47 46 45 44 43 42 42 43 44 45 46 47 48 51 53 54 54 54
48 49 50 51 52 52 53 54 55 56 56 56 55 54 52 52 51 51 51 51 49 48 46 44 44 44 43 42 42 41 41 41 42 43 42 41 42 42 43 42 41 41 42 43 42 42 42 43 44 45 44 44 43 43 42 41 40 40 39 37 36 34 32 35 41 47 49 48 48 48 48 48 47 47 47 48 49 50 50 51 54 56 58 57 57
45 46 47 49 50 52 53 54 55 56 56 56 56 55 54 54 54 53 53 52 51 49 47 44 43 43 42 42 41 40 41 42 42 43 42 41 41 41 41 42 42 42 43 44 43 43 45 46 47 47 47 46 46 46 45 44 42 42 41 40 38 38 38 38 40 44 46 48 49 50 51 51 51 51 51 52 53 53 53 53 54 57 59 59 59
42 43 44 46 47 49 50 51 52 53 55 55 55 55 56 56 55 55 54 53 52 50 48 46 45 44 43 42 42 42 42 43 43 43 42 42 42 42 42 43 43 44 45 46 46 47 48 49 50 50 50 50 49 49 47 46 45 44 43 42 41 41 41 41 42 43 44 46 47 49 51 51 52 52 52 53 54 55 55 56 56 58 60 61 61
40 41 43 45 46 47 48 48 49 50 52 53 54 55 55 56 56 56 55 55 54 53 51 50 49 48 47 46 45 45 45 45 45 45 45 44 44 45 45 46 46 47 47 48 49 50 51 52 52 52 53 52 51 50 49 47 46 46 45 44 43 44 44 44 45 45 45 45 47 48 49 51 52 52 53 53 54 56 57 58 58 59 61 62 63
39 40 41 43 45 46 48 49 49 49 50 51 52 54 55 56 56 56 56 56 55 54 54 54 53 52 52 50 49 48 48 48 47 47 47 48 48 48 49 49 50 50 50 51 51 52 53 54 54 54 54 53 52 51 50 49 48 48 47 46 46 47 47 47 47 47 47 47 48 49 50 51 52 53 53 54 55 57 59 60 61 61 62 63 64
41 40 40 41 42 44 45 47 48 49 49 50 52 53 54 55 56 56 56 56 55 56 56 55 55 55 55 54 53 52 51 51 50 50 51 52 52 52 53 53 53 53 53 53 53 53 54 55 55 56 55 54 53 51 50 50 50 50 50 49 49 50 50 50 50 50 50 50 51 51 52 53 53 54 55 56 57 59 60 61 62 63 64 65 66
43 42 41 41 41 42 44 45 46 47 48 49 51 52 53 54 55 55 55 55 56 56 57 57 57 57 57 56 56 55 55 55 55 55 55 55 55 56 56 56 56 55 55 54 54 54 55 56 56 57 56 54 53 52 52 52 53 53 53 52 52 52 52 52 52 52 53 53 54 54 55 55 55 56 58 59 60 61 62 63 65 66 67 68 68
46 45 43 42 42 42 43 44 44 45 46 48 49 51 52 53 53 53 54 55 56 57 57 58 58 58 59 59 59 58 58 58 58 58 58 58 58 59 58 58 57 57 56 54 53 53 53 53 53 54 54 54 54 54 53 52 53 53 54 55 55 55 54 54 55 55 56 56 57 57 58 58 58 60 61 62 63 64 64 66 67 68 69 70 70
49 48 47 45 44 44 44 44 44 45 45 46 47 48 49 50 50 51 53 55 56 56 57 58 59 59 59 60 60 60 60 60 60 60 59 59 59 59 58 58 58 58 57 55 53 51 49 48 49 49 50 50 51 51 52 52 53 54 55 56 56 57 57 57 58 59 59 60 60 60 61 61 62 63 64 65 67 67 68 69 70 71 72 72 72
52 51 50 49 48 47 46 46 46 46 46 46 46 46 46 47 47 48 50 52 52 53 55 56 57 57 57 58 59 59 59 59 59 58 58 58 58 58 58 59 59 59 58 56 55 54 53 52 52 51 51 52 52 51 50 51 53 54 56 57 59 60 60 61 62 62 63 63 63 64 64 64 65 66 67 68 69 70 71 73 73 74 74 74 75
55 54 53 52 52 51 50 49 48 47 47 46 46 46 45 45 45 46 47 48 48 49 51 52 53 53 54 55 56 56 56 56 56 56 56 56 55 54 55 56 56 56 55 55 54 54 55 55 55 57 59 61 62 60 57 56 56 58 59 60 62 62 63 63 64 64 65 66 66 67 67 68 68 69 70 71 72 74 75 76 76 77 78 78 77
57 57 56 55 55 54 53 52 51 50 49 48 47 46 46 45 45 45 45 45 45 45 46 47 48 48 49 50 51 51 50 49 50 51 52 50 48 48 51 53 54 56 56 55 54 53 53 53 54 57 60 63 64 64 63 62 63 63 62 62 62 62 63 63 64 66 67 68 69 69 70 71 71 72 72 74 76 77 78 79 79 80 81 82 81
61 60 59 59 58 58 57 56 55 53 52 50 49 48 48 47 46 46 45 45 44 44 44 45 46 47 47 48 47 46 45 45 47 49 51 50 48 50 53 55 56 58 58 57 56 55 54 54 54 56 59 61 63 64 64 64 65 65 65 65 65 65 66 67 68 69 71 71 72 72 73 73 74 74 75 77 78 80 81 81 81 82 83 84 83
64 64 63 62 62 61 60 59 58 56 55 54 52 52 51 50 49 48 47 45 44 44 46 47 47 48 49 49 47 45 46 48 50 53 54 55 55 55 57 58 60 60 59 58 58 58 59 58 58 59 61 63 65 66 67 67 67 67 68 68 69 69 70 71 71 72 73 74 74 75 75 76 76 77 79 80 81 82 83 83 83 84 85 85 85
67 67 66 65 64 63 62 61 60 59 58 57 56 56 55 54 52 51 49 47 46 48 50 51 50 51 53 53 52 51 51 52 53 55 56 58 59 60 61 62 63 63 62 62 61 62 63 63 64 64 65 65 66 67 68 68 68 69 70 71 72 72 73 74 74 75 75 76 77 77 78 78 79 81 82 83 84 84 84 85 85 86 86 86 86
69 69 69 68 66 65 64 64 63 62 61 60 60 60 59 58 57 55 53 51 51 54 56 56 55 56 57 57 56 55 55 55 56 57 58 59 60 61 62 64 64 65 65 65 65 65 66 67 68 68 69 69 69 69 69 69 70 70 71 72 74 74 75 76 77 77 78 79 80 80 81 81 82 83 84 85 86 86 87 87 88 88 88 88 88
71 71 71 70 69 68 67 67 66 65 64 63 63 63 62 62 61 60 59 58 58 59 59 59 60 61 62 61 61 60 59 59 59 60 61 62 62 63 64 65 65 66 67 67 67 68 69 70 71 71 72 72 73 73 73 73 73 73 74 75 76 77 78 79 80 80 81 82 83 83 84 85 85 86 86 87 88 88 89 89 90 90 90 89 88
74 74 74 73 71 70 70 70 69 69 68 67 67 66 65 65 64 64 63 63 63 63 63 64 65 65 65 66 66 66 66 66 66 65 66 66 66 66 67 68 68 69 69 69 70 70 71 72 73 73 74 74 75 76 76 77 77 77 78 79 80 80 81 82 82 83 84 85 85 86 87 87 88 88 89 89 90 90 91 91 92 91 90 89 87
77 76 76 75 74 73 72 73 72 72 71 70 69 69 68 68 68 68 67 67 67 67 67 68 68 69 70 70 70 70 70 70 70 70 70 70 70 70 71 71 72 72 73 73 73 74 74 75 75 76 77 77 78 79 80 80 81 81 81 82 82 83 84 85 85 86 87 88 88 89 89 90 91 91 92 92 92 93 93 93 92 90 89 88 86
80 79 79 79 78 77 76 76 76 75 74 73 73 72 72 72 71 71 71 71 70 70 70 70 71 72 72 73 73 74 74 74 74 74 74 74 74 74 75 75 76 76 77 77 77 77 78 79 79 80 81 81 82 83 83 83 84 84 84 85 85 86 87 88 88 89 90 90 91 91 92 92 93 94 95 95 96 95 95 94 91 89 87 86 85
84 84 84 83 82 81 80 80 79 79 78 77 77 77 76 76 75 75 74 74 74 73 73 73 73 73 74 74 75 76 76 77 77 77 78 78 78 78 79 79 80 80 81 81 81 81 82 82 83 83 84 84 85 86 86 86 87 87 88 88 88 89 90 91 91 91 92 92 93 94 94 95 96 97 98 98 97 96 94 93 91 89 87 85 85
87 87 88 88 88 86 85 85 84 84 83 82 81 81 80 79 79 78 78 77 77 77 76 76 76 76 76 76 77 77 78 79 79 80 80 81 81 81 82 82 83 84 84 84 84 85 85 86 86 86 87 87 88 88 89 89 89 90 90 91 91 92 92 93 93 94 94 95 96 97 97 98 98 99 99 98 97 95 93 92 91 89 88 87 85
89 89 90 90 90 89 89 88 88 88 86 85 84 83 83 82 81 81 81 80 80 80 79 79 79 79 79 79 79 79 80 80 81 81 82 82 83 83 83 84 85 85 86 86 86 87 87 88 88 89 89 89 90 90 91 91 92 92 93 93 93 94 95 95 96 97 98 98 99 99 99 99 98 98 97 97 97 96 95 94 92 90 88 87 85
87 90 92 92 92 91 90 90 89 88 87 86 85 85 85 84 84 83 83 83 82 82 82 82 82 82 82 82 82 82 83 83 83 84 84 84 85 85 85 86 86 87 87 88 88 89 90 90 91 91 91 92 92 93 93 94 94 95 95 96 96 97 98 99 99 100 101 101 101 100 99 98 97 96 96 96 97 97 96 95 93 91 88 87 86
81 85 90 93 93 92 91 90 90 89 88 87 87 87 87 87 86 86 85 85 85 85 85 85 85 85 85 86 86 86 87 87 87 87 87 87 88 88 88 88 89 89 90 91 91 92 93 93 94 94 95 95 95 96 96 97 98 98 99 99 100 100 101 101 101 101 102 101 101 99 99 98 97 96 96 96 95 95 95 94 93 91 89 88 87
82 84 87 90 93 94 93 92 92 91 90 88 88 88 88 88 88 88 88 88 88 88 88 88 89 89 90 90 91 91 91 91 91 91 91 91 91 91 92 92 93 94 94 95 95 96 96 97 97 98 98 99 99 100 100 101 101 101 101 101 102 102 102 102 101 100 100 100 100 99 99 99 98 96 95 94 93 93 93 93 93 92 91 89 88
Wind_Direction
231 229 226 225 229 233 234 234 233 231 231 232 234 235 234 231 229 230 232 232 232 231 230 232 233 237 242 248 255 262 270 279 287 296 304 308 311 312 314 316 319 320 321 323 325 325 325 326 329 330 332 335 338 342 344 346 349 353 358 1 0 1 3 5 6 6 5 4 1 357 356 358 3 6 11 14 14 12 14 15 13 9 11 26 69
235 234 231 226 225 230 234 236 236 235 233 234 236 236 235 232 230 231 232 233 233 232 231 232 235 240 245 249 254 262 270 279 287 295 301 305 309 311 314 317 319 321 322 324 324 323 323 325 327 328 330 333 337 340 343 346 349 354 359 0 0 2 4 4 4 4 4 2 360 357 356 357 0 5 10 14 17 16 15 18 19 14 15 32 69
236 237 237 232 227 228 233 237 238 238 236 235 236 237 236 234 233 233 232 233 233 233 232 234 237 242 247 250 255 262 270 279 286 293 298 303 306 310 313 316 319 321 324 325 324 322 324 325 326 327 329 333 337 339 341 345 349 354 359 359 360 3 4 3 2 2 2 2 1 359 358 359 0 5 11 14 18 20 19 21 24 20 17 26 51
238 238 239 237 231 228 231 236 239 240 239 237 237 238 237 236 235 234 233 233 234 234 234 235 238 242 246 250 255 261 268 276 284 290 295 299 302 306 311 316 318 320 322 323 321 322 324 325 325 326 329 332 335 337 341 345 349 354 358 358 359 2 3 1 1 2 2 3 3 2 2 3 2 6 13 15 16 20 21 24 28 26 18 14 27
239 238 238 240 237 229 227 232 237 239 239 239 238 238 238 237 236 235 235 235 235 236 236 237 240 243 246 251 255 260 267 274 281 286 290 293 297 303 309 315 316 318 319 318 319 321 323 323 324 325 328 332 334 336 340 345 349 353 356 356 359 1 0 360 0 2 2 4 6 6 6 8 9 10 14 15 14 17 19 20 26 29 22 9 4
239 238 237 238 238 234 227 227 232 235 237 238 239 238 239 239 237 237 237 237 236 236 238 239 241 244 247 251 256 260 267 273 279 283 285 288 294 300 307 312 314 315 316 315 316 318 320 321 322 324 327 330 332 335 340 345 348 351 352 354 357 359 357 358 359 1 2 5 9 11 11 12 15 17 17 16 12 12 14 14 16 22 22 10 354
239 239 238 237 237 236 232 228 230 232 234 236 239 239 240 240 239 239 239 238 237 237 238 240 242 245 248 252 257 261 267 273 277 280 280 284 291 297 302 308 312 313 314 314 314 315 317 318 320 323 326 328 329 334 340 344 347 348 348 350 355 356 355 354 357 0 2 6 10 15 17 17 19 21 20 18 14 9 9 9 7 8 11 9 358
241 240 239 238 238 237 236 233 232 232 233 235 238 240 240 240 240 240 240 240 240 240 240 242 244 246 249 252 257 262 267 272 276 277 277 281 288 293 298 303 308 310 312 312 312 313 314 315 318 321 323 325 327 333 339 343 344 343 344 347 350 353 352 350 353 358 1 6 11 16 21 21 20 22 20 18 16 10 6 3 360 358 357 358 356
241 241 240 240 239 239 239 238 236 234 233 234 237 239 241 241 241 241 241 241 242 243 244 244 246 248 250 253 256 261 266 272 276 276 275 278 284 289 293 299 304 307 308 309 309 310 311 313 315 318 321 322 325 331 337 341 340 337 339 342 344 348 348 344 347 353 359 7 11 18 25 23 19 21 19 15 13 9 4 1 355 350 346 344 348
239 240 240 240 241 241 241 241 240 238 235 234 235 238 241 242 242 242 243 243 244 245 246 247 249 250 252 254 257 260 264 270 274 275 274 275 280 285 290 296 300 303 305 306 307 307 308 310 313 315 317 319 323 329 335 337 336 331 333 337 336 340 341 338 342 349 356 5 12 18 22 21 18 17 15 10 4 359 356 355 354 352 345 338 338
238 239 240 241 241 241 241 241 242 241 238 235 235 237 239 241 243 244 244 245 245 246 247 248 250 252 253 254 257 259 263 267 272 273 271 272 275 280 286 293 297 300 302 303 304 305 305 307 310 312 314 317 321 327 332 333 330 326 327 330 329 331 336 335 337 343 349 359 10 12 11 15 16 11 4 358 354 350 346 344 346 348 343 339 339
237 238 240 240 240 240 240 240 241 241 240 239 238 238 238 240 241 243 244 245 246 247 248 249 251 253 254 255 257 260 262 266 268 270 269 269 272 277 283 289 294 297 299 300 302 303 302 304 306 308 311 315 319 324 328 329 325 320 320 323 322 324 330 333 334 337 341 350 2 6 4 6 7 2 358 354 349 348 346 343 344 345 344 342 341
236 237 238 239 239 240 241 241 241 241 241 242 242 242 241 240 240 242 243 244 246 247 248 250 251 252 254 256 258 259 262 264 266 268 268 269 271 274 280 286 291 294 296 298 299 300 300 301 303 305 308 311 316 321 325 324 320 314 313 316 315 315 323 331 331 331 334 340 351 357 357 357 354 352 354 352 347 345 348 353 357 356 347 337 329
235 235 237 238 238 240 241 243 243 243 243 244 244 245 244 243 242 243 243 243 245 246 247 249 251 253 254 256 258 259 260 262 265 267 268 269 270 273 277 282 287 290 293 295 296 297 298 298 300 302 305 308 313 318 321 320 315 308 306 308 308 306 311 323 326 326 329 334 340 344 345 347 345 343 345 346 344 345 350 353 351 341 327 324 323
236 235 236 238 238 239 241 243 244 245 245 245 245 246 246 246 246 246 245 245 245 246 247 249 250 252 254 256 258 259 260 262 264 266 267 268 269 271 275 279 283 287 290 292 294 295 296 296 297 299 302 306 311 315 317 316 311 304 300 301 301 297 298 311 319 320 321 324 329 334 336 337 337 337 339 340 340 344 348 343 334 319 315 323 326
236 235 235 237 237 238 240 242 244 245 245 245 245 246 247 248 249 249 249 249 248 249 249 250 251 252 254 256 258 259 260 262 263 264 266 267 269 271 273 277 280 283 287 290 291 292 293 293 294 296 298 303 308 311 313 312 307 301 295 295 298 294 291 300 310 311 312 315 321 327 328 329 330 331 335 337 339 343 340 332 323 315 320 328 331
235 234 234 235 236 237 239 241 243 244 244 244 245 246 248 249 250 251 251 251 252 252 252 253 254 255 255 256 257 258 260 260 262 263 264 266 269 271 273 275 278 280 284 287 289 289 290 291 291 292 295 300 304 308 309 308 304 299 293 293 297 295 291 296 303 305 305 309 316 320 321 323 326 329 333 336 340 338 329 323 322 324 326 329 331
234 233 233 234 235 236 237 239 241 242 242 243 245 246 248 250 250 251 251 252 252 253 254 256 256 256 257 257 258 259 259 260 261 262 263 266 268 271 273 274 275 277 281 285 286 287 287 288 288 289 292 297 301 305 306 304 301 297 293 293 297 296 294 297 301 301 303 308 314 317 318 320 322 325 328 331 330 324 318 317 320 322 324 327 330
233 233 233 234 235 236 236 238 239 240 241 242 244 246 248 250 251 250 250 250 252 253 255 256 256 257 258 258 259 260 260 260 260 261 262 265 268 270 272 273 273 275 279 282 283 284 285 285 286 288 290 294 298 302 303 301 298 295 292 294 296 295 295 300 303 304 308 312 314 315 316 319 319 319 323 324 318 312 310 311 312 312 316 320 322
236 235 234 234 235 235 236 237 238 239 240 242 243 245 247 249 250 250 249 250 251 252 253 255 256 257 258 258 259 260 260 260 260 261 262 264 266 269 271 272 272 274 277 279 280 281 282 283 284 286 289 292 295 299 300 298 295 292 291 294 296 294 296 302 304 306 310 311 311 312 313 315 316 319 322 322 320 317 317 319 320 319 319 321 321
239 238 237 237 237 236 236 237 239 240 241 242 244 245 247 248 249 250 250 251 252 252 253 254 255 256 257 258 259 259 259 259 260 260 262 263 265 268 269 270 272 274 276 277 277 278 279 280 281 283 286 289 292 296 297 294 292 290 289 295 300 298 298 301 304 308 311 311 311 314 315 313 314 318 321 323 325 327 328 331 331 329 327 327 326
240 240 240 239 239 239 238 238 239 241 242 244 245 246 246 248 249 251 252 252 252 252 253 254 254 255 256 257 258 258 259 259 259 259 261 262 264 265 267 269 271 273 274 275 275 276 277 277 279 281 283 286 289 292 293 291 289 288 287 292 303 302 296 299 306 309 309 308 309 311 313 314 316 320 324 326 328 329 330 332 332 330 329 329 327
238 239 240 240 240 239 239 239 239 240 242 244 245 246 246 247 248 250 251 251 251 251 251 252 253 254 254 255 257 257 257 258 258 259 259 261 262 264 265 267 269 271 273 273 273 275 275 276 277 279 281 284 287 289 290 288 287 287 284 285 294 297 291 296 303 304 301 302 307 309 312 316 319 321 324 325 324 325 326 327 327 326 326 325 324
236 236 237 238 238 238 238 238 238 238 240 241 242 243 244 244 246 247 247 248 249 250 250 251 251 252 252 253 255 256 257 258 259 259 259 260 261 263 264 266 268 270 270 271 272 273 274 275 277 279 281 284 286 287 287 286 284 283 280 278 278 276 276 283 291 294 295 300 307 310 311 314 316 317 319 319 318 318 321 322 322 322 322 323 322
235 236 236 236 237 237 237 237 238 238 238 239 240 241 242 243 244 245 246 247 249 250 251 251 251 252 252 253 255 256 257 258 259 259 260 260 261 262 264 265 267 267 268 269 270 272 274 276 278 279 281 284 286 285 285 284 282 279 276 273 270 265 256 261 275 288 294 298 301 304 307 308 310 312 313 314 313 315 317 319 320 320 321 322 321
235 235 235 236 235 236 236 236 237 238 238 239 240 241 242 243 245 246 247 249 250 252 253 253 253 253 253 254 255 256 258 258 259 259 259 259 260 261 263 264 265 265 266 267 269 272 275 277 278 280 281 283 284 283 283 282 280 277 273 269 267 265 258 254 264 278 288 293 296 300 303 305 307 309 311 311 312 314 316 318 318 319 319 320 320
235 234 234 235 235 235 234 235 236 237 238 238 239 240 241 243 245 247 248 250 251 253 253 253 252 252 252 253 254 255 256 257 257 258 258 258 259 260 261 263 263 264 265 268 270 273 275 276 278 279 281 282 283 283 282 280 277 274 271 269 267 267 265 262 263 269 278 285 291 295 298 301 304 306 308 310 311 312 314 315 315 316 317 318 318
236 235 235 236 237 237 236 236 236 237 238 239 240 241 242 243 245 246 248 250 251 252 252 251 250 250 251 251 252 252 253 254 256 257 258 259 259 260 261 262 263 265 266 269 271 273 275 276 278 280 281 282 282 282 281 278 275 272 270 269 269 269 269 269 268 269 273 278 283 288 291 294 298 300 303 306 307 309 311 312 313 314 315 315 315
236 236 236 237 238 240 241 240 240 240 241 242 242 243 244 245 245 247 248 249 250 252 251 251 250 250 251 252 252 253 254 255 256 258 259 260 261 262 262 263 264 265 267 269 271 273 275 277 279 281 282 282 281 281 279 275 273 271 270 270 270 270 271 271 272 273 275 278 281 284 287 290 293 296 300 302 305 307 308 309 311 312 312 313 314
237 237 237 238 238 240 242 243 243 243 243 243 243 244 245 246 246 247 248 248 250 251 251 252 252 253 253 255 255 256 256 257 258 259 261 262 262 263 264 264 265 266 268 270 272 274 277 279 280 281 281 281 279 278 275 273 271 270 270 270 270 271 272 273 274 276 278 280 282 283 286 289 292 295 298 300 302 304 306 307 309 310 311 312 313
236 237 238 239 240 241 242 243 243 244 243 243 243 244 245 245 246 246 247 248 249 250 251 251 252 253 254 256 257 257 258 259 260 260 261 261 262 263 264 265 266 268 270 272 274 276 278 279 280 280 280 279 277 275 272 271 270 270 270 270 271 272 273 275 276 279 280 282 283 284 286 288 290 293 295 297 299 302 304 306 307 308 309 311 312
237 237 238 238 239 241 242 243 244 244 244 244 244 244 244 245 245 246 247 247 248 249 250 251 252 253 254 256 257 258 259 260 260 260 261 262 263 264 265 266 268 269 271 272 275 277 279 279 279 278 276 275 273 272 270 270 270 270 271 271 271 273 274 276 278 280 281 283 284 285 287 289 291 293 294 296 298 300 302 304 305 307 308 310 311
238 239 239 240 240 241 242 243 244 244 245 245 245 245 245 246 246 247 248 249 249 250 251 252 253 254 255 256 257 258 259 260 260 261 262 263 264 265 267 268 269 269 270 272 275 276 277 278 278 277 277 276 273 269 268 269 269 270 271 272 273 274 275 277 279 280 282 283 284 286 288 290 292 294 295 297 298 300 302 303 304 305 307 308 309
239 239 240 241 241 241 242 242 243 243 244 244 244 245 246 246 247 248 248 249 250 251 252 253 254 254 255 256 257 258 259 260 261 262 263 265 266 267 268 269 270 271 271 272 272 270 268 268 269 272 275 276 274 271 270 270 270 271 272 273 274 275 277 278 279 281 282 283 285 286 288 290 292 294 296 297 299 300 302 303 304 305 306 307 307
239 240 241 241 242 242 242 243 243 243 244 244 245 245 246 246 246 247 247 248 249 251 252 253 254 255 256 257 258 259 260 261 262 264 265 266 268 269 272 273 274 273 272 271 270 267 263 260 259 261 263 266 270 274 275 273 272 272 273 273 275 276 277 278 279 281 282 283 285 287 289 290 292 294 295 297 299 300 302 303 304 304 305 305 306
241 241 242 242 242 242 242 243 244 244 244 245 246 246 246 246 246 247 247 248 249 250 251 253 254 255 256 258 259 260 261 263 265 266 268 269 271 274 275 275 273 272 270 269 267 266 264 261 259 259 261 264 268 273 275 274 274 275 275 274 275 276 277 278 279 280 282 283 285 287 289 290 292 293 295 297 299 300 301 302 303 303 303 304 305
242 243 243 243 243 243 243 243 244 245 245 245 246 246 247 247 247 248 249 250 251 252 253 255 256 258 259 260 261 262 265 268 270 271 271 270 271 270 268 267 267 267 267 267 266 266 267 267 266 265 266 268 270 272 273 274 274 275 274 274 274 275 276 278 279 280 282 283 285 287 288 290 291 293 295 297 299 300 301 302 302 303 303 304 305
243 243 244 244 244 244 244 244 244 245 246 247 248 248 249 249 248 249 250 251 252 254 255 257 259 260 261 261 262 264 266 266 265 263 263 262 260 258 258 260 262 264 265 266 266 267 267 269 270 270 270 270 271 271 272 273 273 273 273 273 273 275 277 279 279 280 282 284 285 287 288 289 291 293 295 296 298 299 300 300 301 302 303 304 304
243 243 244 244 245 246 246 246 244 244 245 247 249 251 251 251 251 251 252 253 254 256 258 259 260 261 262 261 260 259 257 256 255 255 256 257 256 256 256 258 261 263 265 267 267 266 266 266 267 268 269 270 270 271 271 272 273 273 273 274 275 276 278 279 280 281 283 284 285 286 288 289 291 293 294 296 297 298 299 299 301 302 302 302 302
243 243 243 244 245 246 247 246 245 245 246 248 249 251 252 252 252 253 254 255 255 256 256 257 258 260 261 261 260 257 254 254 254 255 256 256 257 257 257 259 261 263 265 267 267 266 266 266 267 268 270 271 271 272 272 272 273 274 274 275 276 277 279 280 281 282 283 284 286 287 289 290 292 293 295 296 296 297 298 299 300 300 301 301 301
244 244 244 245 246 247 247 247 246 246 247 249 250 251 251 252 252 253 254 254 254 254 254 254 253 253 255 257 259 259 259 258 258 258 258 258 258 259 259 260 261 262 263 265 266 266 266 267 268 269 271 272 272 273 273 274 274 275 276 276 277 278 279 281 281 283 284 286 287 289 290 291 292 293 294 295 296 297 298 298 299 299 299 299 300
245 245 246 247 248 249 248 248 247 247 248 250 251 252 252 252 253 254 254 253 253 254 256 256 255 253 253 254 256 258 259 260 261 261 261 261 262 262 262 262 263 264 264 264 265 266 266 267 269 270 271 272 273 274 275 275 276 276 277 278 278 279 280 281 283 284 286 287 288 290 291 292 292 293 294 294 295 296 297 298 298 298 298 299 299
244 245 246 247 249 250 250 249 248 248 249 250 251 252 252 252 253 254 254 254 254 254 255 257 258 258 258 258 258 258 260 261 262 262 263 264 264 265 265 265 266 266 267 267 268 268 269 269 271 272 273 273 274 275 276 276 277 277 278 279 280 281 282 283 285 286 287 288 289 290 291 291 292 293 293 294 295 295 296 296 296 297 297 298 299
243 244 245 246 249 250 251 250 250 249 250 250 251 251 251 252 253 253 254 254 254 254 255 256 257 259 260 261 261 262 262 263 264 265 266 266 267 267 268 268 268 269 269 270 270 271 271 272 273 273 274 275 275 276 276 277 278 279 279 280 282 283 284 285 285 286 287 288 289 290 291 291 292 293 293 294 294 294 294 294 295 295 296 297 299
241 242 243 245 247 249 250 250 250 250 250 250 251 251 252 252 253 254 254 254 255 255 256 256 257 258 259 260 262 263 264 265 266 266 267 267 268 269 269 270 270 270 271 271 272 272 273 273 274 274 275 276 276 277 278 279 279 280 281 282 283 283 284 285 286 287 288 289 289 290 291 291 292 293 293 293 293 293 293 294 294 295 296 297 298
240 241 241 243 245 247 248 249 249 249 250 251 252 253 253 254 254 255 255 256 256 256 257 257 258 258 259 260 261 262 263 263 264 265 266 266 267 267 268 268 269 270 270 271 272 272 273 273 274 275 275 276 277 278 278 279 280 281 282 282 283 284 285 285 286 287 288 289 289 290 291 291 292 292 292 292 292 293 293 294 294 295 296 297 297
241 241 242 243 245 246 247 247 247 248 250 252 253 253 253 254 255 255 256 256 257 257 258 258 259 259 260 261 261 261 262 263 263 263 264 265 265 266 267 267 268 269 270 270 271 272 272 273 274 275 275 276 277 278 279 280 281 282 282 283 283 284 285 286 287 287 288 288 289 289 290 290 291 291 291 292 293 293 294 295 295 296 297 297 297
242 243 243 244 245 245 246 246 247 247 249 251 253 253 254 254 255 256 256 256 257 258 258 259 260 260 261 262 262 263 263 264 264 264 265 265 266 266 267 267 268 269 270 271 271 272 273 273 274 275 276 276 277 278 279 280 281 282 282 283 284 285 285 286 286 287 287 287 288 288 289 290 290 291 292 293 294 295 295 296 296 297 297 297 297
242 244 244 244 244 244 245 245 245 246 248 250 252 253 254 255 256 256 257 258 258 259 260 260 261 261 262 263 264 264 265 265 266 266 267 267 268 268 268 269 270 270 271 272 272 273 274 274 275 276 277 277 278 279 280 280 281 282 282 283 284 284 285 285 285 286 286 287 288 288 289 290 291 292 293 294 295 295 296 296 296 297 297 297 298
242 244 244 243 243 243 244 244 245 246 247 249 251 252 253 255 256 256 257 258 259 260 260 261 262 263 264 264 265 265 266 266 267 268 268 269 270 270 271 271 271 272 272 273 273 274 274 275 276 276 277 278 278 279 279 280 281 281 282 282 283 283 284 284 285 286 287 288 289 290 291 291 292 292 293 293 294 295 295 296 297 297 298 298 298
240 242 243 243 242 243 243 244 245 246 247 249 250 251 252 253 254 255 256 257 258 259 260 261 261 262 263 264 265 265 266 266 267 268 268 269 270 270 270 271 271 272 272 272 273 274 274 275 275 276 276 277 278 278 278 279 279 280 280 281 282 283 284 285 286 287 288 289 290 290 291 291 292 292 292 293 294 295 295 296 297 297 297 298 298